[[[{"header":{"parameterUnit":"kt","parameterCategory":2,"dx":1,"dy":1,"la1":30.253999710083008,"la2":30.299108505249023,"lo1":-89.0895004272461,"lo2":-89.04439544677734,"nx":28,"ny":28,"refTime":"2022-09-23T21:00:00:Z","depth":0,"parameterNumber":1,"parameterNumberName":"U-component_of_WINDS"},"data":[-4.4882,-4.5044,-4.5065,-4.526,-4.5313,-4.545,-4.5506,-4.5582,-4.5648,-4.5816,-4.5916,-4.5956,-4.6032,-4.6159,-4.627,-4.6286,-4.6332,-4.6373,-4.6384,-4.618,-4.6153,-4.6127,-4.6089,-4.6382,-4.6383,-4.6593,-4.6595,-4.6596,-4.4728,-4.4781,-4.489,-4.5011,-4.5106,-4.5079,-4.5174,-4.5255,-4.5379,-4.5462,-4.5563,-4.5713,-4.5835,-4.5899,-4.6021,-4.6099,-4.6094,-4.613,-4.6125,-4.6138,-4.592,-4.5879,-4.6132,-4.6132,-4.6132,-4.6132,-4.6132,-4.6132,-4.4454,-4.455,-4.4635,-4.4755,-4.4822,-4.4903,-4.5,-4.5045,-4.5154,-4.5283,-4.5289,-4.5431,-4.552,-4.5678,-4.5738,-4.585,-4.5814,-4.5862,-4.5874,-4.5885,-4.5895,-4.5588,-4.5872,-4.5872,-4.5871,-4.587,-4.587,0,-4.426,-4.4271,-4.4378,-4.4491,-4.458,-4.467,-4.4757,-4.4818,-4.4851,-4.494,-4.5071,-4.5151,-4.5308,-4.5435,-4.5555,-4.5607,-4.5591,-4.5592,-4.5625,-4.5623,-4.5606,-4.5617,-4.526,-4.5584,-4.5581,-4.558,-4.5578,-4.5577,-4.3985,-4.4095,-4.4195,-4.4268,-4.432,-4.4437,-4.4512,-4.4533,-4.4611,-4.4723,-4.4808,-4.4935,-4.5037,-4.5245,-4.53,-4.5419,-4.5412,-4.5533,-4.543,-4.5424,-4.5414,-4.5407,-4.5419,-4.5552,-4.5555,-4.5558,-4.556,0,-4.3828,-4.3862,-4.4041,-4.413,-4.4156,-4.4271,-4.4348,-4.4447,-4.4481,-4.4622,-4.4656,-4.4711,-4.484,-4.4876,-4.5031,-4.5046,-4.5238,-4.5229,-4.5207,-4.5207,-4.5319,-4.5308,-4.5676,-4.5725,-4.5422,-4.5425,-4.5427,0,-4.3607,-4.3752,-4.3795,-4.3897,-4.4059,-4.4076,-4.4236,-4.4281,-4.4357,-4.4468,-4.4453,-4.4558,-4.4587,-4.4698,-4.472,-4.4883,-4.4913,-4.4934,-4.4938,-4.4935,-4.4933,-4.4978,-4.4964,-4.4943,-4.4941,-4.494,-4.4938,0,-4.3358,-4.3551,-4.3717,-4.3767,-4.3877,-4.3955,-4.4005,-4.409,-4.4163,-4.4265,-4.4313,-4.443,-4.4495,-4.4586,-4.4613,-4.4542,-4.4814,-4.4722,-4.4835,-4.4835,-4.4894,-4.489,-4.5206,-4.4936,-4.4935,-4.4935,-4.4934,0,-4.3185,-4.3285,-4.352,-4.3611,-4.3661,-4.3771,-4.3886,-4.3989,-4.408,-4.41,-4.418,-4.4175,-4.4321,-4.4227,-4.4428,-4.4327,-4.4392,-4.4425,-4.4434,-4.445,-4.4343,-4.4517,-4.4814,-4.4847,-4.4463,-4.446,-4.4456,0,-4.289,-4.3136,-4.3152,-4.3376,-4.3494,-4.3469,-4.3592,-4.3672,-4.371,-4.3816,-4.3858,-4.3981,-4.3918,-4.3961,-4.4056,-4.4105,-4.4236,-4.4088,-4.4244,-4.4249,-4.422,-4.4494,-4.4529,-4.4745,-4.4406,-4.4412,-4.4415,0,-4.2666,-4.2798,-4.2837,-4.2894,-4.3003,-4.3103,-4.3244,-4.3368,-4.3438,-4.3531,-4.365,-4.3824,-4.3783,-4.3856,-4.3864,-4.3961,-4.4148,-4.3905,-4.3908,-4.3948,-4.4384,-4.4417,-4.4453,-4.4132,-4.4138,-4.4143,-4.4376,0,-4.2396,-4.2524,-4.2631,-4.2758,-4.2841,-4.2983,-4.3019,-4.3101,-4.3099,-4.3135,-4.3312,-4.3389,-4.3518,-4.3568,-4.3569,-4.378,-4.375,-4.3706,-4.3617,-4.3797,-4.3875,-4.3906,-4.3498,-4.3496,-4.3494,-4.3492,0,0,-4.2105,-4.2289,-4.2303,-4.2439,-4.2509,-4.2481,-4.263,-4.2695,-4.2829,-4.2879,-4.2829,-4.3085,-4.3151,-4.3361,-4.342,-4.3473,-4.3514,-4.345,-4.3711,-4.3735,-4.3758,-4.384,-4.3873,-4.3489,-4.3488,-4.3487,-4.3487,0,-4.2014,-4.2078,-4.2225,-4.2292,-4.2393,-4.2424,-4.2459,-4.2555,-4.2585,-4.2757,-4.2733,-4.2843,-4.3048,-4.312,-4.3184,-4.3425,-4.3401,-4.3462,-4.3579,-4.369,-4.3716,-4.374,-4.3827,-4.3857,-4.3482,-4.3482,-4.3482,0,-4.1799,-4.1868,-4.1943,-4.21,-4.2167,-4.229,-4.2205,-4.234,-4.2432,-4.2396,-4.2568,-4.2616,-4.2716,-4.291,-4.2999,-4.2957,-4.3296,-4.3196,-4.321,-4.3221,-4.333,-4.3362,-4.3391,-4.3012,-4.301,-4.3009,0,0,-4.1716,-4.1834,-4.1916,-4.2084,-4.2127,-4.2174,-4.2244,-4.225,-4.2339,-4.2375,-4.2436,-4.2525,-4.2644,-4.2722,-4.2836,-4.3044,-4.3067,-4.3137,-4.3159,-4.3177,-4.3197,-4.3311,-4.3343,-4.3002,-4.3002,-4.3001,0,0,-4.1676,-4.1776,-4.1759,-4.1957,-4.2042,-4.2135,-4.2236,-4.2217,-4.2323,-4.2311,-4.2329,-4.2354,-4.2536,-4.2585,-4.2489,-4.2805,-4.2716,-4.274,-4.2766,-4.2795,-4.2817,-4.2801,-4.2414,0,0,0,0,0,-4.1601,-4.1763,-4.1746,-4.1785,-4.1985,-4.2143,-4.2169,-4.2187,-4.2123,-4.2203,-4.2251,-4.2221,-4.2537,-4.2453,-4.2492,-4.2598,-4.2914,-4.293,-4.2944,-4.3027,-4.3057,-4.3082,0,0,0,0,0,0,-4.1616,-4.1663,-4.1742,-4.1841,-4.1886,-4.2138,-4.2034,-4.2043,-4.2115,-4.2106,-4.2212,-4.2224,-4.2243,-4.2434,-4.2469,-4.257,-4.2402,-4.292,-4.2933,-4.2945,-4.3037,-4.3062,-4.3082,0,0,0,0,0,-4.1628,-4.1666,-4.1983,-4.1838,-4.1878,-4.194,-4.2028,-4.2035,-4.2091,-4.2166,-4.2176,-4.2097,-4.2245,-4.2276,-4.2455,-4.2553,-4.2378,-4.2391,-4.2929,-4.2939,-4.2948,-4.3049,0,0,0,0,0,0,-4.1637,-4.1674,-4.1991,-4.2004,-4.1778,-4.1926,-4.1949,-4.2027,-4.2146,-4.2158,-4.2051,-4.2043,-4.2249,-4.2272,-4.2296,-4.2547,-4.2359,-4.2372,-4.238,-4.2937,-4.2945,-4.2952,0,0,0,0,0,0,-4.1654,-4.1685,-4.1998,-4.192,-4.1924,-4.1913,-4.1934,-4.2089,-4.2148,-4.2024,-4.2021,-4.2046,-4.2214,-4.2271,-4.2289,-4.253,-4.2344,-4.2356,-4.2365,-4.2371,-4.2943,-4.295,0,0,0,0,0,0,-4.1667,-4.1694,-4.1917,-4.192,-4.1924,-4.2067,-4.205,-4.2255,-4.208,-4.2019,-4.2064,-4.2058,-4.2214,-4.2232,-4.2284,-4.2517,-4.2527,-4.2344,-4.2353,-4.2359,-4.2363,0,0,0,0,0,0,0,-4.1678,-4.1494,-4.1916,-4.192,-4.1923,-4.2121,-4.2125,-4.2128,-4.2078,-4.2072,-4.2066,-4.206,-4.2272,-4.2286,-4.23,-4.2507,0,0,-4.2343,-4.2349,0,0,0,0,0,0,0,0,-4.1483,-4.1491,-4.1916,-4.1919,-4.1921,-4.2122,-4.2125,-4.2127,-4.2077,-4.2072,-4.2067,-4.2063,-4.2276,-4.2287,-4.2298,0,0,0,0,0,0,0,0,0,0,0,0,0,0,0,-4.1917,-4.1919,0,-4.2122,-4.2124,-4.2127,-4.2076,-4.2072,-4.2068,-4.2065,-4.2279,-4.2288,-4.2297,0,0,0,0,0,0,0,0,0,0,0,0,0,0,0,0,0,0,0,0,0,0,0,0,0,0,0,0,0,0,0,0,0,0,0,0,0,0,0,0,0,0,0,0,0,0,0,0,0,0,0,0,0,0,0,0,0,0,0,0,0,0,0,0,0,0,0,0,0]}],[{"header":{"parameterUnit":"kt","parameterCategory":2,"dx":1,"dy":1,"la1":30.253999710083008,"la2":30.299108505249023,"lo1":-89.0895004272461,"lo2":-89.04439544677734,"nx":28,"ny":28,"refTime":"2022-09-23T21:00:00:Z","depth":0,"parameterNumber":2,"parameterNumberName":"V-component_of_WINDS"},"data":[3.5057,3.5098,3.5104,3.5152,3.5166,3.5199,3.5213,3.5231,3.5246,3.5286,3.5309,3.5318,3.5335,3.5363,3.5387,3.539,3.5399,3.5409,3.541,3.5361,3.5354,3.5348,3.5338,3.5412,3.5412,3.546,3.546,3.5461,3.5019,3.5033,3.5062,3.5092,3.5116,3.5109,3.5133,3.5152,3.5182,3.5202,3.5225,3.526,3.5288,3.53,3.5327,3.5344,3.5341,3.5351,3.5348,3.535,3.5298,3.5288,3.5353,3.5353,3.5353,3.5353,3.5353,3.5353,3.4952,3.4977,3.4999,3.5029,3.5046,3.5066,3.509,3.5101,3.5127,3.5157,3.5159,3.5192,3.5211,3.5246,3.5258,3.5283,3.5273,3.5284,3.5286,3.5288,3.5289,3.5216,3.5288,3.5288,3.5288,3.5288,3.5288,0,3.4904,3.4907,3.4935,3.4964,3.4986,3.5009,3.503,3.5045,3.5052,3.5073,3.5104,3.5123,3.5158,3.5187,3.5213,3.5223,3.5215,3.5216,3.5223,3.5222,3.5217,3.5217,3.513,3.5213,3.5213,3.5212,3.5212,3.5212,3.4834,3.4863,3.4889,3.4907,3.492,3.495,3.4968,3.4972,3.4991,3.5017,3.5038,3.5068,3.5091,3.5138,3.5148,3.5174,3.517,3.5201,3.5173,3.5172,3.5167,3.5164,3.5166,3.5205,3.5206,3.5207,3.5207,0,3.4794,3.4803,3.4849,3.4872,3.4878,3.4907,3.4926,3.495,3.4957,3.4991,3.4999,3.501,3.504,3.5045,3.5079,3.5081,3.5125,3.5122,3.5118,3.5117,3.5143,3.514,3.5233,3.5244,3.5171,3.5171,3.5172,0,3.4736,3.4774,3.4785,3.4811,3.4853,3.4856,3.4896,3.4906,3.4924,3.495,3.4944,3.4969,3.4972,3.4997,3.4999,3.5037,3.5045,3.5047,3.5046,3.5046,3.5045,3.5052,3.5047,3.5047,3.5047,3.5047,3.5046,0,3.467,3.472,3.4764,3.4776,3.4803,3.4823,3.4835,3.4854,3.4872,3.4896,3.4906,3.4934,3.4948,3.4969,3.497,3.4951,3.5018,3.4992,3.502,3.5019,3.5031,3.503,3.5115,3.5046,3.5045,3.5045,3.5045,0,3.4623,3.4649,3.4711,3.4733,3.4746,3.4774,3.4801,3.4827,3.4848,3.4851,3.487,3.4865,3.4901,3.4874,3.4922,3.4896,3.491,3.4916,3.4918,3.4918,3.4888,3.4931,3.5014,3.5021,3.4923,3.4922,3.4921,0,3.4543,3.4609,3.4612,3.467,3.4701,3.4691,3.4723,3.4742,3.4749,3.4774,3.4782,3.4811,3.4793,3.4802,3.4826,3.4833,3.4867,3.4829,3.4862,3.4863,3.4854,3.4931,3.4941,3.4996,3.4908,3.4909,3.491,0,3.4482,3.4515,3.4526,3.4539,3.4566,3.4592,3.4628,3.4658,3.4675,3.4698,3.4726,3.4769,3.4756,3.4771,3.477,3.4794,3.4844,3.4776,3.4777,3.4786,3.4903,3.4911,3.4921,3.4838,3.4839,3.4841,3.49,0,3.4405,3.444,3.4469,3.4501,3.4522,3.4559,3.4565,3.4586,3.4583,3.4589,3.4633,3.4649,3.4678,3.4691,3.4688,3.4742,3.4733,3.4719,3.469,3.4742,3.4762,3.477,3.4661,3.4661,3.466,3.4659,0,0,3.4324,3.4374,3.4376,3.4412,3.4429,3.4418,3.4457,3.4473,3.4504,3.4515,3.4501,3.4561,3.4575,3.4627,3.4643,3.4656,3.4665,3.4647,3.4718,3.4725,3.4731,3.4752,3.476,3.4658,3.4658,3.4658,3.4657,0,3.4297,3.4315,3.4354,3.4371,3.4395,3.44,3.441,3.4432,3.4437,3.4481,3.4469,3.4496,3.4545,3.456,3.4573,3.4642,3.4629,3.4651,3.4685,3.4712,3.4719,3.4726,3.4748,3.4756,3.4656,3.4656,3.4656,0,3.4235,3.4252,3.4273,3.4314,3.4329,3.4361,3.4334,3.4369,3.4392,3.4375,3.4418,3.4428,3.4448,3.4498,3.452,3.4507,3.4596,3.457,3.4574,3.4576,3.4602,3.4611,3.4619,3.4512,3.4512,3.4511,0,0,3.4211,3.4243,3.4261,3.4308,3.4319,3.4327,3.4344,3.4343,3.4362,3.437,3.4382,3.44,3.4428,3.4447,3.4473,3.4528,3.453,3.4552,3.4559,3.4564,3.4569,3.4596,3.4605,3.4509,3.4509,3.4509,0,0,3.4198,3.4221,3.4215,3.427,3.429,3.431,3.4337,3.4329,3.4354,3.435,3.4347,3.4352,3.4399,3.4408,3.4381,3.4463,3.4435,3.4442,3.4454,3.4463,3.447,3.4465,3.4353,0,0,0,0,0,3.4172,3.4219,3.4213,3.4223,3.4273,3.4314,3.432,3.432,3.43,3.4322,3.433,3.4316,3.4393,3.4369,3.4379,3.4407,3.4484,3.4489,3.4493,3.4522,3.4531,3.4539,0,0,0,0,0,0,3.4176,3.4189,3.4211,3.4233,3.4245,3.4312,3.4279,3.428,3.4298,3.4295,3.4315,3.4317,3.4316,3.4365,3.4373,3.44,3.4351,3.4486,3.449,3.4493,3.4525,3.4533,3.4539,0,0,0,0,0,3.4179,3.4189,3.4271,3.4232,3.4242,3.4253,3.4277,3.4278,3.4291,3.4304,3.4305,3.4289,3.4317,3.4324,3.4369,3.4396,3.4345,3.4348,3.4488,3.4491,3.4494,3.4529,0,0,0,0,0,0,3.4182,3.419,3.4273,3.4276,3.4215,3.4249,3.4255,3.4276,3.4299,3.4301,3.4277,3.4274,3.4318,3.4324,3.4329,3.4395,3.434,3.4343,3.4345,3.4491,3.4493,3.4495,0,0,0,0,0,0,3.4184,3.4192,3.4274,3.4252,3.4253,3.4246,3.4251,3.4289,3.4299,3.4271,3.427,3.4276,3.431,3.4323,3.4327,3.4387,3.4337,3.434,3.4342,3.4343,3.4493,3.4494,0,0,0,0,0,0,3.4188,3.4195,3.4252,3.4252,3.4252,3.4285,3.4279,3.433,3.4282,3.427,3.4278,3.4276,3.431,3.4314,3.4327,3.4385,3.4387,3.4337,3.4339,3.434,3.4341,0,0,0,0,0,0,0,3.419,3.4145,3.4256,3.4251,3.4252,3.4303,3.4303,3.4304,3.4282,3.428,3.4278,3.4276,3.4319,3.4323,3.4326,3.4383,0,0,3.4336,3.4338,0,0,0,0,0,0,0,0,3.4142,3.4144,3.4256,3.4257,3.4257,3.4303,3.4303,3.4304,3.4281,3.428,3.4279,3.4277,3.432,3.4323,3.4326,0,0,0,0,0,0,0,0,0,0,0,0,0,0,0,3.4256,3.4257,0,3.4303,3.4303,3.4304,3.4281,3.428,3.4279,3.4278,3.4321,3.4323,3.4325,0,0,0,0,0,0,0,0,0,0,0,0,0,0,0,0,0,0,0,0,0,0,0,0,0,0,0,0,0,0,0,0,0,0,0,0,0,0,0,0,0,0,0,0,0,0,0,0,0,0,0,0,0,0,0,0,0,0,0,0,0,0,0,0,0,0,0,0,0]}]]]